SCP
0 0 0 0 0 0 0 0 0 0 -0 -0 0 0 0 -0 0 -0 0 0 0 -0 0 0 0 0 0 0 0 0 0 0
0 0 0 0 0 0 0 0 0 0 0 0 0 -0 0 0 0 -0 0 0 0 0 0 0 0 0 0 0 0 0 0 0
0 0 0 0 -0 0 0 0 0 0 0 0 0 0 0 0 0 -0 0 0 0 0 0 0 0 1 0 0 0 0 0 0
0 0 0 -0 0 0 0 0 0 0 0 0 0 0 0 0 0 -0 0 0 0 0 0 0 1 1 1 0 0 0 0 0
0 0 0 0 -0 0 0 0 0 0 0 0 0 0 0 -0 -0 0 0 0 0 0 0 1 1 1 1 1 0 0 0 0
0 0 0 0 0 0 0 0 0 0 0 0 0 0 0 -0 -0 0 0 0 0 0 0 0 1 2 2 1 1 0 1 1
0 0 0 0 0 0 0 0 0 0 0 0 0 0 0 0 0 0 0 0 0 0 0 0 0 1 2 1 1 1 1 1
0 0 0 0 0 0 0 0 0 0 0 0 0 0 0 0 0 0 0 0 0 0 0 0 0 1 2 1 1 1 1 0
0 0 0 0 0 0 0 0 0 0 0 0 0 0 0 0 0 0 0 0 0 0 0 0 0 1 1 1 2 2 1 2
0 0 0 0 0 0 0 0 0 0 -0 0 0 0 0 0 0 0 0 0 0 0 0 0 0 0 1 1 3 2 2 2
0 0 0 0 0 0 0 0 -0 -0 -0 -0 -0 -0 0 0 0 0 0 0 0 0 1 1 0 0 1 1 1 1 1 2
0 0 0 0 0 0 0 0 -0 -0 -0 -0 0 0 0 0 0 0 0 0 0 0 1 1 1 1 1 1 1 1 1 1
0 0 0 0 0 0 0 0 0 0 0 0 0 0 0 0 0 0 0 0 0 0 0 1 1 1 1 1 0 0 1 1
0 0 0 0 0 -0 -0 -0 0 0 0 0 0 0 0 0 0 0 0 0 0 0 0 0 1 1 1 0 0 0 1 1
0 0 0 0 0 0 -0 -0 -0 -0 -0 0 0 0 0 0 0 0 0 0 0 0 0 0 0 0 0 1 0 1 1 1
0 0 0 0 0 0 0 0 0 0 0 0 0 0 0 -0 -0 0 0 0 0 0 0 0 0 0 1 1 1 1 1 1
0 0 0 0 0 0 0 0 0 0 0 0 0 0 0 0 -0 -0 0 0 0 0 0 0 0 0 1 1 1 1 1 0
0 0 0 0 0 0 0 0 0 0 0 0 0 0 0 0 0 0 0 0 0 0 0 0 0 1 1 1 1 1 1 1
0 0 0 0 0 0 0 0 0 0 0 0 0 0 0 0 0 0 0 0 0 0 0 0 0 0 1 1 1 1 1 1
0 0 0 0 0 0 0 0 0 0 0 0 0 0 0 0 0 0 0 0 0 0 0 0 0 0 1 1 1 1 1 1
Wind_Speed_500mb
6 9 22 10 17 24 20 26 29 9 11 10 8 33 19 40 44 42 40 34 33 32 30 31 32 33 33 32 33 31 30 26
10 26 22 21 3 8 11 17 7 17 8 10 20 19 33 42 44 43 40 33 31 25 30 34 36 36 35 35 35 34 32 30
11 29 16 20 37 30 35 23 13 18 10 8 20 26 43 46 46 41 36 33 28 28 31 36 38 40 39 39 41 38 37 35
30 31 24 25 31 32 27 29 25 12 13 8 18 36 51 48 44 42 35 33 32 35 38 40 41 44 43 44 46 44 42 41
18 15 25 36 28 34 28 31 14 11 7 4 22 33 46 45 44 41 39 37 34 36 39 45 47 49 49 49 50 50 49 47
19 24 33 14 4 6 8 14 22 4 4 8 6 37 39 44 45 42 39 40 40 40 39 45 50 52 55 55 55 55 54 53
34 27 21 4 11 5 9 15 16 9 11 30 2 28 35 43 45 41 40 37 37 43 45 46 53 59 61 61 62 61 60 61
15 31 19 27 11 16 13 25 21 27 12 18 19 5 22 36 41 40 40 35 30 32 44 55 59 66 67 69 69 70 69 71
33 39 35 42 42 26 28 38 38 23 20 36 28 19 19 27 39 43 44 43 41 39 45 58 65 70 72 76 77 78 76 80
33 37 24 32 40 30 35 64 37 33 46 43 43 32 24 24 27 46 50 38 44 53 61 66 68 74 78 82 85 82 86 85
49 48 34 30 42 33 45 61 45 49 57 52 40 39 33 29 30 31 41 42 27 36 43 48 55 60 72 85 90 86 90 90
46 30 23 34 54 37 40 54 36 38 53 60 47 48 37 37 34 31 30 35 35 44 52 57 55 59 63 72 75 80 84 87
32 54 40 38 60 61 66 62 62 55 55 55 50 48 45 40 42 32 29 36 47 52 58 55 55 56 57 58 57 66 70 77
51 26 17 30 60 58 34 49 55 57 55 40 39 41 42 41 44 46 44 42 52 61 59 62 55 52 55 52 54 59 59 61
51 45 28 32 61 48 45 48 47 47 50 45 45 53 60 59 53 42 48 59 60 55 57 53 50 54 55 49 57 54 52 50
47 19 44 39 69 43 46 34 46 48 47 48 52 65 77 78 78 72 64 55 54 48 52 54 49 56 48 49 57 53 48 44
36 26 28 46 59 52 51 58 61 70 68 65 63 70 84 88 87 77 63 60 57 45 52 47 48 43 46 52 56 48 43 38
20 10 18 38 52 38 26 37 50 55 60 64 65 66 76 74 68 61 62 57 54 49 51 46 37 38 45 50 48 41 34 32
17 7 21 22 40 41 34 45 55 58 60 62 67 60 71 74 68 64 58 49 46 46 49 43 36 37 43 45 37 37 35 33
35 22 26 8 25 34 34 37 35 44 51 61 56 62 83 91 91 88 72 58 45 45 47 42 36 40 43 36 33 33 30 29
Wind_Direction_500mb
205 215 223 244 214 241 245 293 276 285 212 214 213 211 178 169 170 170 177 179 183 176 184 192 199 201 200 199 197 196 196 196
229 232 229 230 216 166 283 336 236 263 256 226 227 199 182 171 170 176 173 174 187 190 198 200 208 209 209 211 210 211 206 207
235 243 250 250 262 272 282 287 259 258 241 224 203 190 176 174 175 173 172 178 186 202 210 211 217 218 216 219 220 220 217 216
232 237 243 264 266 270 266 287 291 232 238 193 191 175 179 184 182 183 187 180 192 208 216 221 225 229 225 224 226 227 226 225
241 252 258 260 260 261 274 275 290 273 230 252 189 173 184 191 193 194 199 205 207 214 223 229 232 234 236 233 233 232 232 232
236 236 256 261 250 307 211 260 305 302 257 353 231 185 184 194 196 205 210 216 222 225 232 238 240 243 241 239 240 239 239 239
233 217 226 233 237 270 300 277 304 340 104 12 120 195 195 197 198 209 217 224 232 240 243 247 249 249 247 245 243 243 242 244
228 229 230 236 226 294 298 295 285 306 230 21 36 325 219 211 213 222 229 229 238 258 259 257 255 253 252 251 249 246 246 245
231 228 231 246 258 248 272 276 271 271 275 305 312 297 294 256 237 237 242 242 249 263 267 264 260 260 257 256 255 252 250 248
248 242 232 237 252 252 249 256 269 269 284 286 285 283 270 265 259 251 254 264 271 271 274 275 270 269 269 263 262 259 256 252
243 250 250 261 247 247 255 262 263 272 277 273 273 278 273 268 259 264 253 251 272 285 291 292 283 276 276 271 266 265 260 257
245 238 236 251 265 241 252 258 257 261 266 271 271 273 272 269 261 258 258 251 283 296 299 299 288 283 280 276 268 265 263 261
236 238 247 252 278 245 248 259 262 259 262 266 267 275 274 275 271 268 267 281 290 296 301 298 287 281 279 275 262 260 262 262
237 210 226 187 259 265 231 246 253 266 267 262 263 273 272 274 278 283 290 294 297 300 298 293 282 278 271 267 251 255 259 263
239 213 199 193 254 257 260 244 249 251 264 274 280 277 276 279 284 290 297 299 296 300 300 290 275 274 264 254 247 253 253 258
237 219 214 217 249 252 264 266 268 263 265 271 274 279 282 284 286 291 296 289 293 300 304 286 274 269 255 245 246 246 246 253
259 231 209 221 244 250 247 259 262 270 275 276 278 283 283 284 291 289 282 277 284 294 305 292 272 252 244 238 245 247 242 248
252 245 235 244 250 253 249 255 257 264 270 274 280 280 283 285 283 285 275 271 272 288 296 295 261 245 240 243 252 245 235 237
250 291 249 274 267 254 247 249 254 259 264 267 268 273 279 275 277 280 279 275 276 283 291 288 260 243 240 243 243 228 225 223
239 253 243 202 275 259 252 252 252 260 263 264 271 269 273 275 276 274 275 278 274 279 284 278 256 241 240 243 234 227 223 204
Wind_Speed_850mb
6 9 22 10 17 24 20 26 29 9 11 10 8 33 19 40 44 42 40 34 33 32 30 31 32 33 33 32 33 31 30 26
10 26 22 21 3 8 11 17 7 17 8 10 20 19 33 42 44 43 40 33 31 25 30 34 36 36 35 35 35 34 32 30
11 29 16 20 37 30 35 23 13 18 10 8 20 26 43 46 46 41 36 33 28 28 31 36 38 40 39 39 41 38 37 35
30 31 24 25 31 32 27 29 25 12 13 8 18 36 51 48 44 42 35 33 32 35 38 40 41 44 43 44 46 44 42 41
18 15 25 36 28 34 28 31 14 11 7 4 22 33 46 45 44 41 39 37 34 36 39 45 47 49 49 49 50 50 49 47
19 24 33 14 4 6 8 14 22 4 4 8 6 37 39 44 45 42 39 40 40 40 39 45 50 52 55 55 55 55 54 53
34 27 21 4 11 5 9 15 16 9 11 30 2 28 35 43 45 41 40 37 37 43 45 46 53 59 61 61 62 61 60 61
15 31 19 27 11 16 13 25 21 27 12 18 19 5 22 36 41 40 40 35 30 32 44 55 59 66 67 69 69 70 69 71
33 39 35 42 42 26 28 38 38 23 20 36 28 19 19 27 39 43 44 43 41 39 45 58 65 70 72 76 77 78 76 80
33 37 24 32 40 30 35 64 37 33 46 43 43 32 24 24 27 46 50 38 44 53 61 66 68 74 78 82 85 82 86 85
49 48 34 30 42 33 45 61 45 49 57 52 40 39 33 29 30 31 41 42 27 36 43 48 55 60 72 85 90 86 90 90
46 30 23 34 54 37 40 54 36 38 53 60 47 48 37 37 34 31 30 35 35 44 52 57 55 59 63 72 75 80 84 87
32 54 40 38 60 61 66 62 62 55 55 55 50 48 45 40 42 32 29 36 47 52 58 55 55 56 57 58 57 66 70 77
51 26 17 30 60 58 34 49 55 57 55 40 39 41 42 41 44 46 44 42 52 61 59 62 55 52 55 52 54 59 59 61
51 45 28 32 61 48 45 48 47 47 50 45 45 53 60 59 53 42 48 59 60 55 57 53 50 54 55 49 57 54 52 50
47 19 44 39 69 43 46 34 46 48 47 48 52 65 77 78 78 72 64 55 54 48 52 54 49 56 48 49 57 53 48 44
36 26 28 46 59 52 51 58 61 70 68 65 63 70 84 88 87 77 63 60 57 45 52 47 48 43 46 52 56 48 43 38
20 10 18 38 52 38 26 37 50 55 60 64 65 66 76 74 68 61 62 57 54 49 51 46 37 38 45 50 48 41 34 32
17 7 21 22 40 41 34 45 55 58 60 62 67 60 71 74 68 64 58 49 46 46 49 43 36 37 43 45 37 37 35 33
35 22 26 8 25 34 34 37 35 44 51 61 56 62 83 91 91 88 72 58 45 45 47 42 36 40 43 36 33 33 30 29
Wind_Direction_850mb
205 215 223 244 214 241 245 293 276 285 212 214 213 211 178 169 170 170 177 179 183 176 184 192 199 201 200 199 197 196 196 196
229 232 229 230 216 166 283 336 236 263 256 226 227 199 182 171 170 176 173 174 187 190 198 200 208 209 209 211 210 211 206 207
235 243 250 250 262 272 282 287 259 258 241 224 203 190 176 174 175 173 172 178 186 202 210 211 217 218 216 219 220 220 217 216
232 237 243 264 266 270 266 287 291 232 238 193 191 175 179 184 182 183 187 180 192 208 216 221 225 229 225 224 226 227 226 225
241 252 258 260 260 261 274 275 290 273 230 252 189 173 184 191 193 194 199 205 207 214 223 229 232 234 236 233 233 232 232 232
236 236 256 261 250 307 211 260 305 302 257 353 231 185 184 194 196 205 210 216 222 225 232 238 240 243 241 239 240 239 239 239
233 217 226 233 237 270 300 277 304 340 104 12 120 195 195 197 198 209 217 224 232 240 243 247 249 249 247 245 243 243 242 244
228 229 230 236 226 294 298 295 285 306 230 21 36 325 219 211 213 222 229 229 238 258 259 257 255 253 252 251 249 246 246 245
231 228 231 246 258 248 272 276 271 271 275 305 312 297 294 256 237 237 242 242 249 263 267 264 260 260 257 256 255 252 250 248
248 242 232 237 252 252 249 256 269 269 284 286 285 283 270 265 259 251 254 264 271 271 274 275 270 269 269 263 262 259 256 252
243 250 250 261 247 247 255 262 263 272 277 273 273 278 273 268 259 264 253 251 272 285 291 292 283 276 276 271 266 265 260 257
245 238 236 251 265 241 252 258 257 261 266 271 271 273 272 269 261 258 258 251 283 296 299 299 288 283 280 276 268 265 263 261
236 238 247 252 278 245 248 259 262 259 262 266 267 275 274 275 271 268 267 281 290 296 301 298 287 281 279 275 262 260 262 262
237 210 226 187 259 265 231 246 253 266 267 262 263 273 272 274 278 283 290 294 297 300 298 293 282 278 271 267 251 255 259 263
239 213 199 193 254 257 260 244 249 251 264 274 280 277 276 279 284 290 297 299 296 300 300 290 275 274 264 254 247 253 253 258
237 219 214 217 249 252 264 266 268 263 265 271 274 279 282 284 286 291 296 289 293 300 304 286 274 269 255 245 246 246 246 253
259 231 209 221 244 250 247 259 262 270 275 276 278 283 283 284 291 289 282 277 284 294 305 292 272 252 244 238 245 247 242 248
252 245 235 244 250 253 249 255 257 264 270 274 280 280 283 285 283 285 275 271 272 288 296 295 261 245 240 243 252 245 235 237
250 291 249 274 267 254 247 249 254 259 264 267 268 273 279 275 277 280 279 275 276 283 291 288 260 243 240 243 243 228 225 223
239 253 243 202 275 259 252 252 252 260 263 264 271 269 273 275 276 274 275 278 274 279 284 278 256 241 240 243 234 227 223 204